timestamp,gas_concentrations,,corrected_fluxes_and_quality_flags,,,,,,,,,,storage_terms,,,turbulence,,,footprint,,
ISOdate,CO2_1_1_1,H2O_1_1_1,Tau_1_1_1,QcTau_1_1_1,H_1_1_1,QcH_1_1_1,LE_1_1_1, QcLE_1_1_1,Fc_1_1_1, QcFc_1_1_1,E_1_1_1, QcE_1_1_1,Sa_1_1_1,Sw_1_1_1,Sc_1_1_1,ustar_1_1_1,MO_length_1_1_1,ZL_1_1_1,Fetchmax_1_1_1,Fetch70_1_1_1,Fetch90_1_1_1
yyyymmddHHMM,[µmol+1mol_a-1],[mmol+1mol_a-1],[kg+1m-1s-2],[#],[W+1m-2],[#],[W+1m-2],[#],[µmol+1s-1m-2],[#],[mmol+1s-1m-2],[#],[W+1m-2],[W+1m-2],[µmol+1s-1m-2],[m+1s-1],[m],[#],[m],[m],[m]
201301170030,-9999.,1.7223942269459875,0.34774577368577303,0,10.826612231006795,1,0.26260887225439844,0,-9999.,-9999.,5.75235730781356938E-003,0,-9999.,-9999.,-9999.,0.51938287155950391,-1093.9577848118126,-1.97448204125314809E-002,120.48214913029526,220.27979442079490,330.01927227639021
201301170100,-9999.,1.6824408551213459,0.41307619357314518,0,8.7633286853871368,1,0.35767347269895372,0,-9999.,-9999.,7.83277300196813520E-003,0,-6.6935635792728174,-1.5826379376811464,-9999.,0.56557313243397889,-1746.0196108313216,-1.23709950713072041E-002,124.86341818956318,228.29015159523419,342.02024700189082
201301170130,-9999.,1.5783944331538888,0.26031755700006315,0,-8.7547292802534109,2,2.82152315341460992E-002,1,-9999.,-9999.,6.17684209266012143E-004,1,-9.0954049505647010,-4.1316357417656198,-9999.,0.44849381920990616,871.96179331443398,2.47717275752366919E-002,101.54220357380564,185.65153335771674,278.13982710856288
201301170200,-9999.,1.5484285407987102,0.19637600467109390,0,-0.44136018191991966,2,0.12124605276741253,0,-9999.,-9999.,2.65355122763446432E-003,0,-7.6818493325547355,-1.1921925225578671,-9999.,0.38922061595247753,11308.356441604130,1.91009189633714496E-003,94.670339959449052,173.08757500218320,259.31672803900688
201301170230,-9999.,1.5785576811252107,0.23769811942126945,0,1.3228830671524630,1,0.14659240998492548,0,-9999.,-9999.,3.20799640722222931E-003,0,-2.3422788952709994,1.1994951803770593,-9999.,0.42809427407499756,-5020.8238625469121,-4.30208280380562410E-003,130.12400722487067,237.90818613059625,356.42981537122523
201301170300,-9999.,1.5883610689012737,0.15148140664256166,0,-4.0184323218689704,1,0.11006855551896901,1,-9999.,-9999.,2.40867805274282403E-003,1,-0.43136427748073475,0.39039962464077776,-9999.,0.34170374998768793,840.68392322815885,2.56933663213847752E-002,104.36738683846424,190.81686941150051,285.87844176459595
201301170330,-9999.,1.4437165818017477,0.20749689402288080,0,-15.128986086580985,0,-1.20268558585069560E-002,0,-9999.,-9999.,-2.63060908134697289E-004,0,-13.240885530064569,-5.7758928125793974,-9999.,0.39946397732376199,356.79663193169733,6.05386880561556290E-002,102.40912949468476,187.23655043292504,280.51447151515180
201301170400,-9999.,1.3692727666685145,0.18481796246448581,0,-9.1912464474783526,1,-4.08344657679011527E-002,0,-9999.,-9999.,-8.92722326407739794E-004,0,-13.491980082093960,-2.9809570903615028,-9999.,0.37656522265121245,492.05144591792640,4.38978488513635107E-002,100.49826248985700,183.74287610832670,275.28031074608845
201301170430,-9999.,1.3491264099650526,0.13819157132770093,0,-15.862292554660497,0,-0.12299378170487048,1,-9999.,-9999.,-2.68786384782537498E-003,1,-10.417102723642246,-0.80840955295909023,-9999.,0.32533893309221973,183.88310308296519,0.11746593155029811,94.466831951186691,172.71549745752935,258.75928807570966
201301170500,-9999.,1.3315880565180205,0.14718660619382345,0,-11.593793813711667,1,-6.72284599736778093E-002,1,-9999.,-9999.,-1.46874261437684030E-003,1,-8.2988955974787206,-0.70477882634181344,-9999.,0.33556696381379936,276.04038841461590,7.82494189493623954E-002,107.80642530541355,197.10452855414701,295.29850092178890
201301170530,-9999.,1.3311283093951738,0.28976790024872395,0,-23.516067404030718,0,6.29638697009254761E-002,1,-9999.,-9999.,1.37534126206357785E-003,1,-4.6379668653143273,-1.84894607757695208E-002,-9999.,0.47069142878883902,375.55723166432006,5.75145362113715780E-002,124.91714403521297,228.38837957606165,342.16741041665199
201301170600,-9999.,1.2771756065713475,0.28421482411211307,0,-20.017118861930918,0,-0.14504056173034499,0,-9999.,-9999.,-3.16738444776787668E-003,0,-6.8126677641741962,-2.1732804508995573,-9999.,0.46583840501753937,427.79033987665571,5.04920237474925301E-002,111.27922629455065,203.45391635535694,304.81104085794425
201301170630,-9999.,1.1864134880935442,0.58589339112798111,0,-14.373003684811490,1,6.52962435303249423E-003,1,-9999.,-9999.,1.42512127905113604E-004,1,-15.710585987767377,-3.6686289764511697,-9999.,0.66786596213868055,1756.2632274259520,1.22988397540258268E-002,112.09375296184187,204.94313088312180,307.04215559095303
201301170700,-9999.,1.0851996091773783,0.45098461186409811,0,-25.079201897612709,0,-8.08152327520516717E-002,0,-9999.,-9999.,-1.76280905109122321E-003,0,-16.012673381786552,-4.1051311029501187,-9999.,0.58510586676356025,676.98302119807261,3.19062654802981308E-002,109.47000510072495,200.14608299153906,299.85530371278696
201301170730,-9999.,1.0268685950966392,0.43945492268435565,0,-22.153984015848010,0,-6.26870853369050351E-002,0,-9999.,-9999.,-1.36675809543153814E-003,0,-12.670533437675259,-2.3729656961311267,-9999.,0.57683647475517941,734.65236576152347,2.94016612573076604E-002,106.21051211358937,194.18669024908587,290.92704744105356
201301170800,-9999.,0.99702478202483247,0.67418824139222844,0,-33.733327139580723,0,-1.27465240531609968E-002,1,-9999.,-9999.,-2.77838657371811098E-004,1,-7.2078140472544900,-1.2163859417670519,-9999.,0.71388366820552229,914.88170139872875,2.36096098183804122E-002,124.77000783124467,228.11936766852219,341.76438155877014
201301170830,-9999.,0.99254683168237745,0.43921754860566004,0,-4.1666200266045106,1,0.14567481735854348,1,-9999.,-9999.,3.17540602691814954E-003,1,0.88803499616269055,-0.18250648213356974,-9999.,0.57620685880448574,3895.2187144867316,5.54525986427085830E-003,114.38057068691397,209.12416302765916,313.30610362727896
201301170900,-9999.,1.0221340373570562,0.49183361245521939,0,21.730367425976777,0,0.24361663996528102,0,-9999.,-9999.,5.31233724956661334E-003,0,10.468677864021558,1.2036551480324413,-9999.,0.61019494908650829,-887.07739860348886,-2.43496227431839879E-002,111.95762841833930,204.69425180290264,306.66928937707848
201301170930,-9999.,1.0573911074022138,0.32769889513330897,0,33.522710617628292,0,0.36805534472855572,0,-9999.,-9999.,8.02893753465555408E-003,0,10.602226508633210,1.4320263393341626,-9999.,0.49838324023636438,-313.40160460607621,-6.89211531866586458E-002,95.100475098232991,173.87399922044659,260.49493482322072
201301171000,-9999.,1.0785412747676297,0.63938875583734933,0,51.653075142147493,0,0.50897881856381810,0,-9999.,-9999.,1.11052486329776979E-002,0,5.3283140528584827,0.85841526335649587,-9999.,0.69635218794137865,-554.91221990123938,-3.89250753999331039E-002,111.42688432126289,203.72388232129913,305.21549906916550
201301171030,-9999.,1.1036197817616789,0.47462724837297737,0,36.597306691668528,0,0.38831130616426252,0,-9999.,-9999.,8.47565919228800493E-003,0,10.486070620275328,1.0159250467309537,-9999.,0.60041871574171946,-502.08144833447443,-4.30209084037110404E-002,112.67314886660147,206.00245138586837,308.62921073753654
201301171100,-9999.,1.1283705404167264,0.82108176664235843,0,132.97879752742614,1,1.1731886528836855,0,-9999.,-9999.,2.56206074171433269E-002,0,14.466930996185015,0.99969162346073104,-9999.,0.79067915855251869,-315.50936757411927,-6.84607248465475271E-002,118.76374025533322,217.13799493896340,325.31228414178315
201301171130,-9999.,1.1476728327718018,0.62104471138594275,0,98.242930418434455,0,0.94145007308552908,0,-9999.,-9999.,2.05708881948691129E-002,0,14.803314573986153,0.77708800028049752,-9999.,0.68859066037661076,-281.99006211194262,-7.65984440665336969E-002,115.06314949077681,210.37213477846427,315.17579272021248
201301171200,-9999.,1.1388748957186570,1.0996136900804112,0,155.48717507548744,0,1.4123163562222076,0,-9999.,-9999.,3.08767832940629976E-002,0,15.395641496952067,-0.35309117596971418,-9999.,0.91743337417639093,-421.32369269554471,-5.12669958383007648E-002,120.69673975395092,220.67213452100660,330.60706924023418
201301171230,-9999.,1.1466774598645808,1.0548072353940583,0,121.44636138390355,0,1.1404437523281621,0,-9999.,-9999.,2.49377307139026783E-002,0,5.2240469262773122,0.31282308707453382,-9999.,0.89892288920049657,-507.41021715828975,-4.25691073407411247E-002,118.73784311215559,217.09064670176451,325.24134785448075
201301171300,-9999.,1.1425883333420719,0.95576906220856983,0,132.66206572606671,0,1.2801819198021693,0,-9999.,-9999.,2.79936731289101050E-002,0,0.32325312568529652,-0.16391079116516433,-9999.,0.85575943169857682,-400.72193537081483,-5.39027143098919082E-002,119.11410470010249,217.77857288701003,326.27198663654218
201301171330,-9999.,1.1169350446937063,1.0211237641772219,0,136.11809255795774,0,1.2285909291782069,0,-9999.,-9999.,2.68697344687372427E-002,0,4.2673128852080628,-1.0274133152881222,-9999.,0.88484211779250344,-431.71521435223684,-5.00329830451065397E-002,117.14256254396793,214.17396503447586,320.87162722789560
201301171400,-9999.,1.0972014263234051,1.0449805591454997,0,119.08119380838923,0,1.0584800623856456,0,-9999.,-9999.,2.31521586024977730E-002,0,3.3137143458528211,-0.78987228733783288,-9999.,0.89532086581869663,-511.23669545977833,-4.22504882607735027E-002,123.01724754867057,224.91476285775630,336.96329959679002
201301171430,-9999.,1.1192148736939362,0.94444335372892707,0,83.068908923427429,0,0.72504295503866745,0,-9999.,-9999.,1.58623336408095957E-002,0,5.9333726427690365,0.88006700159169493,-9999.,0.85158565095327277,-630.59765812358228,-3.42532195001696502E-002,132.26535443791136,241.82325178370004,362.29529713794341
201301171500,-9999.,1.1214332118520138,0.74180233871839563,0,37.298190677698791,0,0.35014361528589966,0,-9999.,-9999.,7.66123991974429486E-003,0,3.1055768262627836,8.86425550093917630E-002,-9999.,0.75486012714021866,-978.24539158718881,-2.20803493538102129E-002,124.21274020916540,227.10050472396904,340.23793920669272
201301171530,-9999.,1.0919580811494443,0.94684276070155005,0,32.557871480766664,0,0.35701216480681364,0,-9999.,-9999.,7.81166925721607508E-003,0,0.50062950702976849,-1.1777888239034289,-9999.,0.85281792431474357,-1616.1232646237690,-1.33653171591638763E-002,117.67392695441161,215.14546864675356,322.32711667022414
201301171600,-9999.,1.0585087148904007,0.85973404240688978,0,-5.4263936558087407,2,2.04236582654989222E-002,1,-9999.,-9999.,4.46811734111234558E-004,1,-4.3822744461975720,-1.3380039291118770,-9999.,0.81227427368417437,8379.6512981182532,2.57767289252841926E-003,123.39854070650722,225.61188835749718,338.00772062830009
201301171630,-9999.,1.0804192794927956,0.30414086312807975,0,-6.7825125719707797,1,-0.12456764216612040,2,-9999.,-9999.,-2.72474809215684762E-003,2,-4.3951270582549338,0.87745104904361093,-9999.,0.48288628149383650,1408.8794036942670,1.53313335004841168E-002,106.30692853216311,194.36297021267816,291.19114694892988
201301171700,-9999.,1.0857176304359786,0.36532177524896092,0,-20.864279363643426,0,-0.10301596613757376,1,-9999.,-9999.,-2.25314570034136283E-003,1,-2.2886873594985784,0.21237312131381159,-9999.,0.52901639721483085,602.39059343716872,3.58571336194892787E-002,108.36195710598859,198.12021786337857,296.82018858984253
201301171730,-9999.,1.0681039207488598,0.30026533935468919,0,-15.774049026400508,0,-5.90909762341280606E-002,0,-9999.,-9999.,-1.29204285201706798E-003,0,-8.1300276341469910,-0.70737527847019654,-9999.,0.47921112621407630,592.42656271681005,3.64602152559542966E-002,109.30447917812712,199.84344881324489,299.40190256653466
201301171800,-9999.,1.0701749441431971,0.36288381502827471,0,-20.665512692644640,0,-8.52675684345158835E-002,0,-9999.,-9999.,-1.86383375224467135E-003,0,-8.3632742007555070,8.33150733703550556E-002,-9999.,0.52644708361412818,599.58932009543696,3.60246576716241676E-002,109.32591128567776,199.88263354126761,299.46060842950499
201301171830,-9999.,1.0724593413112060,0.37154108141877651,0,-29.092103659729545,0,-0.15915488006609055,0,-9999.,-9999.,-3.47796566797829504E-003,0,-7.4580668040940026,9.20217049590492664E-002,-9999.,0.53240664980098928,440.52369596961398,4.90325496621864046E-002,113.00999086428122,206.61830598787205,309.55187315473978
201301171900,-9999.,1.0913565012858535,0.36495067628809014,0,-45.367800072096784,0,-0.26847734367625609,0,-9999.,-9999.,-5.86581194429425072E-003,0,-5.3705709396302108,0.76216311757423283,-9999.,0.52739346608578863,274.62374444762139,7.86530678308471620E-002,112.80203649253701,206.23809907267847,308.98225391300878
201301171930,-9999.,1.1069010936785120,0.19750044809903677,0,-29.424761948875602,0,-0.18257767875456951,0,-9999.,-9999.,-3.98854302802167850E-003,0,-3.4143676455488512,0.62742292282443024,-9999.,0.38785116267543890,168.42272498177411,0.12824872654410174,96.020763042200215,175.55657909280433,263.01574607820879
201301172000,-9999.,1.1164807167007547,0.28004436269162591,0,-33.609150090952767,0,-0.21555051132912420,0,-9999.,-9999.,-4.70824078769624833E-003,0,-3.6133308889873512,0.38694028002837683,-9999.,0.46170706028232134,248.75644336803566,8.68319216481269474E-002,109.56812622847603,200.32547970719668,300.12407268320374
201301172030,-9999.,1.1276870312350602,0.34402773618171756,0,-45.582188886691817,0,-0.29638822575870588,0,-9999.,-9999.,-6.47316497525938887E-003,0,-3.4178310571991699,0.45289141633605234,-9999.,0.51163448364289210,249.56626078516112,8.65501607951498775E-002,108.08187290444012,197.60813461467350,296.05299456949700
201301172100,-9999.,1.1393655886491267,0.32061646960740048,0,-41.844130549501223,0,-0.26969844827735295,0,-9999.,-9999.,-5.89071029181561720E-003,0,2.1236698572107002,0.47178455060304680,-9999.,0.49400186837628829,244.70992971838788,8.82677708454956272E-002,100.84374834375814,184.37453443631964,276.22665002463953
201301172130,-9999.,1.1491343917954653,0.38163677126037426,0,-49.240836549710792,0,-0.32681556994290273,0,-9999.,-9999.,-7.13859069709204489E-003,0,1.3012229103745627,0.39450036508810060,-9999.,0.53904566183264468,270.16080978682487,7.99523810172313998E-002,109.59171564465140,200.36860868342367,300.18868774872021
201301172200,-9999.,1.1561311940095844,0.29069039131761232,0,-34.988643200448159,0,-0.24494100184420411,2,-9999.,-9999.,-5.34986396938797078E-003,2,-1.8065653089468816,0.28261609227210577,-9999.,0.47041914617603869,252.67306383860264,8.54859622622742565E-002,106.39506147423957,194.52410533935412,291.43255673135496
201301172230,-9999.,1.1680794375542127,0.33868579973529028,0,-36.545919466497530,0,-0.25387247100424037,0,-9999.,-9999.,-5.54463668564175293E-003,0,-1.5069965024812397,0.48267275600020276,-9999.,0.50775626926413164,304.16375170688428,7.10143791914278899E-002,115.63072307499198,211.40984030871991,316.73046469924088
201301172300,-9999.,1.1747973602933919,0.29339829246700910,0,-39.654733722147206,0,-0.27862642349611139,0,-9999.,-9999.,-6.08472041746253335E-003,0,-2.4844156888780113,0.27154966614421250,-9999.,0.47246859585310974,225.86507099753734,9.56323166951100201E-002,110.64296485267784,202.29062751443453,303.06822219526157
201301172330,-9999.,1.1814313074606808,0.27295107579827516,0,-38.959979870481774,0,-0.27200842689529031,0,-9999.,-9999.,-5.94013200092705692E-003,0,-0.29128575871781165,0.26816649392442199,-9999.,0.45570131608934139,206.27368487828804,0.10471524767080735,104.90972734513807,191.80844082833323,287.36399643498072
201301180000,-9999.,1.1731239912277138,0.16704585270777636,0,-28.333098310196974,0,-0.19791524100897745,1,-9999.,-9999.,-4.32069419314605029E-003,1,-8.8627606210738623,-0.33640475332401848,-9999.,0.35623807083512221,135.51249721007466,0.15939489305193139,107.05900557631527,195.73800691205906,293.25120248909514
